[[{"header":{"parameterUnit":"m.s-1","parameterCategory":1,"la1":30.2991,"la2":30.254,"lo1":-89.0895,"lo2":-89.0444,"dy":0.0017,"dx":0.0017,"nx":28,"ny":28,"refTime":"2025-03-21T03:00:00:Z","depth":0,"parameterNumber":2,"parameterNumberName":"U-component_of_WINDS"},"data":[0,0,0,0,0,0,0,0,0,0,0,0,0,0,0,0,0,0,0,0,0,0,0,0,0,0,0,0,0,0,0,0,0,0,0,0,0,0,0,0,0,0,0,0,0,0,0,0,0,0,0,0,0,0,0,0,0,0,2.0831,2.0831,0,2.0856,2.0856,2.0856,2.0783,2.0781,2.0779,2.0777,2.0805,2.0808,2.0811,0,0,0,0,0,0,0,0,0,0,0,0,0,2.0722,2.0724,2.0831,2.0831,2.0832,2.0856,2.0856,2.0856,2.0784,2.0781,2.0778,2.0775,2.0804,2.0808,2.0811,0,0,0,0,0,0,0,0,0,0,0,0,0,2.076,2.0725,2.0831,2.0798,2.0795,2.0855,2.0856,2.0856,2.0784,2.0781,2.0777,2.0774,2.0803,2.0807,2.0812,2.0906,0,0,2.0825,2.0827,0,0,0,0,0,0,0,0,2.0758,2.0764,2.0803,2.0801,2.0798,2.0813,2.0828,2.0873,2.0785,2.0789,2.0776,2.0773,2.0811,2.0814,2.0826,2.0907,2.0908,2.0825,2.0828,2.0829,2.0831,0,0,0,0,0,0,0,2.0755,2.0763,2.0841,2.0803,2.08,2.0782,2.0784,2.0836,2.0818,2.0788,2.0783,2.0786,2.0809,2.0822,2.0826,2.0909,2.0825,2.0829,2.0831,2.0833,2.1062,2.1066,0,0,0,0,0,0,2.0757,2.0761,2.084,2.0842,2.0769,2.0787,2.0789,2.0811,2.0818,2.0815,2.0789,2.0783,2.0817,2.0822,2.0827,2.0934,2.0829,2.0833,2.0836,2.1059,2.1063,2.1067,0,0,0,0,0,0,2.0755,2.0765,2.0839,2.08,2.0808,2.0792,2.0818,2.0814,2.0827,2.0818,2.0815,2.0806,2.0814,2.0821,2.0885,2.0934,2.0835,2.0839,2.1055,2.106,2.1065,2.115,0,0,0,0,0,0,2.0752,2.0764,2.08,2.0801,2.081,2.0897,2.0821,2.0817,2.0834,2.0826,2.0834,2.0832,2.0812,2.0879,2.0889,2.0938,2.0843,2.105,2.1057,2.1063,2.1143,2.1158,2.1171,0,0,0,0,0,2.0748,2.0825,2.0802,2.0812,2.0855,2.09,2.0905,2.088,2.0839,2.0874,2.0868,2.0831,2.0927,2.0886,2.0897,2.0948,2.1047,2.1055,2.1063,2.1137,2.1155,2.117,0,0,0,0,0,0,2.0833,2.0825,2.0799,2.0879,2.089,2.0888,2.0932,2.0901,2.0925,2.0917,2.0886,2.0888,2.0957,2.0959,2.0914,2.1037,2.098,2.099,2.1033,2.105,2.1063,2.106,2.0846,0,0,0,0,0,2.086,2.0897,2.0889,2.0959,2.0966,2.0948,2.0967,2.0946,2.0957,2.0962,2.0961,2.0974,2.1006,2.1028,2.1058,2.1143,2.1142,2.1183,2.1197,2.1208,2.1217,2.1258,2.1275,2.1093,2.1093,2.1093,0,0,2.0918,2.0918,2.0944,2.0976,2.0983,2.1021,2.0953,2.0998,2.1025,2.0969,2.1028,2.1028,2.104,2.1113,2.1146,2.1117,2.1267,2.1218,2.1227,2.123,2.1268,2.1285,2.1301,2.1098,2.1097,2.1096,0,0,2.1042,2.1048,2.1105,2.1111,2.1121,2.1107,2.1121,2.1122,2.1119,2.1177,2.1135,2.1167,2.1225,2.1234,2.1246,2.1369,2.1335,2.138,2.1451,2.1492,2.1506,2.1518,2.1559,2.1574,2.1389,2.1389,2.139,0,2.1114,2.1169,2.1139,2.1184,2.1198,2.1147,2.1203,2.1212,2.1232,2.1243,2.121,2.1278,2.1283,2.1356,2.1385,2.1398,2.1411,2.1378,2.1506,2.1518,2.153,2.1568,2.1584,2.1394,2.1394,2.1393,2.1393,0,2.1254,2.1292,2.1338,2.1354,2.1373,2.1425,2.1402,2.1425,2.1402,2.1391,2.145,2.1453,2.148,2.1497,2.1476,2.1566,2.1547,2.1511,2.1453,2.1552,2.1588,2.1603,2.1402,2.14,2.1398,2.1397,0,0,2.1434,2.1429,2.1446,2.1451,2.1456,2.1485,2.1533,2.1557,2.1576,2.1591,2.1629,2.1677,2.1642,2.1656,2.1635,2.1671,2.1763,2.163,2.1629,2.1652,2.1858,2.1884,2.1901,2.1741,2.1744,2.1746,2.1856,0,2.1553,2.1632,2.1605,2.1686,2.1719,2.1669,2.1711,2.1718,2.1709,2.1736,2.1727,2.1759,2.1713,2.172,2.1753,2.1745,2.1804,2.1737,2.1775,2.1777,2.1771,2.192,2.1948,2.2052,2.187,2.1873,2.1874,0,2.1703,2.172,2.1803,2.1798,2.1811,2.1848,2.1866,2.1893,2.1899,2.189,2.1903,2.1874,2.1919,2.1862,2.1923,2.1878,2.1892,2.189,2.1893,2.1894,2.183,2.1923,2.2085,2.2099,2.1896,2.1895,2.1893,0,2.1821,2.1865,2.1919,2.1926,2.1922,2.1948,2.1948,2.1951,2.1966,2.1982,2.1991,2.2013,2.2025,2.2043,2.202,2.1981,2.2083,2.2025,2.2075,2.2076,2.2098,2.2097,2.2262,2.2111,2.2111,2.2111,2.211,0,2.1956,2.2009,2.1971,2.2005,2.2061,2.2028,2.2085,2.208,2.2081,2.2112,2.2072,2.2102,2.2071,2.2097,2.208,2.2131,2.2138,2.2131,2.2125,2.2133,2.2133,2.214,2.2131,2.2115,2.2114,2.2113,2.2112,0,2.2097,2.2075,2.213,2.212,2.2119,2.2161,2.2152,2.2182,2.2169,2.2208,2.2216,2.2196,2.2225,2.2203,2.2234,2.2221,2.2287,2.2273,2.2285,2.228,2.233,2.2325,2.2504,2.2524,2.2363,2.2365,2.2366,0,2.2184,2.2222,2.2215,2.2231,2.2232,2.2261,2.2274,2.2243,2.2259,2.2266,2.2295,2.232,2.2338,2.2387,2.2375,2.2397,2.2381,2.2442,2.2384,2.2389,2.2378,2.2375,2.2377,2.2453,2.2455,2.2457,2.2458,0,2.2338,2.2324,2.2345,2.236,2.2377,2.2389,2.2398,2.2414,2.2382,2.2402,2.2429,2.2443,2.2471,2.2495,2.2512,2.2512,2.2479,2.2476,2.2488,2.2496,2.25,2.2495,2.2314,2.2472,2.2471,2.247,2.2469,2.2468,2.2452,2.2482,2.248,2.2503,2.2506,2.2514,2.254,2.2528,2.255,2.2569,2.2549,2.2582,2.2584,2.2602,2.2606,2.2631,2.2605,2.2624,2.2628,2.2633,2.2638,2.2497,2.2634,2.2634,2.2633,2.2633,2.2633,0,2.2601,2.2597,2.2618,2.2629,2.2647,2.2613,2.2619,2.2637,2.2665,2.2669,2.2686,2.2716,2.2738,2.2727,2.2747,2.2769,2.2754,2.2774,2.2771,2.2771,2.2662,2.2647,2.2786,2.2786,2.2786,2.2786,2.2786,2.2786,2.2681,2.2728,2.2713,2.276,2.2756,2.2785,2.2791,2.2798,2.28,2.2834,2.2851,2.2843,2.284,2.2858,2.2877,2.2873,2.2881,2.2907,2.2897,2.2795,2.278,2.2765,2.2751,2.2909,2.291,2.3004,2.3005,2.3006]},{"header":{"parameterUnit":"m.s-1","parameterCategory":1,"la1":30.2991,"la2":30.254,"lo1":-89.0895,"lo2":-89.0444,"dy":0.0017,"dx":0.0017,"nx":28,"ny":28,"refTime":"2025-03-21T03:00:00:Z","depth":0,"parameterNumber":3,"parameterNumberName":"V-component_of_WINDS"},"data":[0,0,0,0,0,0,0,0,0,0,0,0,0,0,0,0,0,0,0,0,0,0,0,0,0,0,0,0,0,0,0,0,0,0,0,0,0,0,0,0,0,0,0,0,0,0,0,0,0,0,0,0,0,0,0,0,0,0,4.9263,4.9264,0,4.9335,4.9335,4.9336,4.928,4.9278,4.9276,4.9273,4.9342,4.9345,4.9349,0,0,0,0,0,0,0,0,0,0,0,0,0,4.9073,4.9076,4.9263,4.9264,4.9265,4.9335,4.9336,4.9336,4.9281,4.9278,4.9275,4.9272,4.934,4.9345,4.935,0,0,0,0,0,0,0,0,0,0,0,0,0,4.9151,4.9078,4.9263,4.9246,4.9245,4.9334,4.9336,4.9337,4.9282,4.9278,4.9274,4.9271,4.9339,4.9345,4.935,4.9459,0,0,4.9369,4.9372,0,0,0,0,0,0,0,0,4.9146,4.9158,4.9248,4.9247,4.9247,4.9295,4.9293,4.9378,4.9282,4.9268,4.9273,4.9269,4.9329,4.9335,4.9356,4.9462,4.9465,4.9369,4.9373,4.9376,4.9377,0,0,0,0,0,0,0,4.9141,4.9154,4.9291,4.9249,4.9248,4.9232,4.924,4.9309,4.9317,4.9269,4.9265,4.9274,4.9328,4.9351,4.9358,4.9466,4.9369,4.9375,4.9378,4.9381,4.966,4.9664,0,0,0,0,0,0,4.9138,4.915,4.9289,4.9294,4.9187,4.9239,4.9247,4.9283,4.9316,4.9318,4.9277,4.9271,4.9342,4.9351,4.936,4.9486,4.9376,4.9381,4.9385,4.9656,4.9661,4.9665,0,0,0,0,0,0,4.9134,4.9151,4.9286,4.9221,4.9237,4.9246,4.9287,4.9286,4.9309,4.9323,4.9323,4.93,4.934,4.9351,4.9434,4.9488,4.9384,4.939,4.9652,4.9658,4.9663,4.9741,0,0,0,0,0,0,4.9129,4.915,4.9193,4.9222,4.9241,4.9362,4.929,4.929,4.932,4.9313,4.9344,4.9345,4.9338,4.9425,4.944,4.9494,4.9394,4.9647,4.9655,4.9661,4.9734,4.9749,4.9762,0,0,0,0,0,4.9122,4.9212,4.9196,4.9213,4.9295,4.9365,4.9375,4.9366,4.9325,4.9367,4.9375,4.9344,4.948,4.9434,4.9451,4.9507,4.9644,4.9653,4.9661,4.9728,4.9746,4.9761,0,0,0,0,0,0,4.9188,4.9216,4.9198,4.93,4.9331,4.9356,4.9408,4.9386,4.9428,4.942,4.9405,4.9412,4.9498,4.9511,4.946,4.9612,4.9555,4.9567,4.96,4.9618,4.9631,4.9625,4.9399,0,0,0,0,0,4.9214,4.9271,4.9291,4.9379,4.9396,4.94,4.943,4.942,4.9451,4.9463,4.9477,4.9506,4.9555,4.9587,4.9633,4.9736,4.974,4.9782,4.9796,4.9808,4.9818,4.9869,4.9887,4.9693,4.9693,4.9693,0,0,4.9269,4.9291,4.9328,4.9393,4.9416,4.9472,4.9411,4.9474,4.9514,4.9472,4.955,4.9562,4.9593,4.9686,4.9727,4.9699,4.9872,4.9819,4.9828,4.9831,4.988,4.9898,4.9914,4.9699,4.9698,4.9697,0,0,4.9397,4.9422,4.9496,4.952,4.9555,4.9557,4.9574,4.9603,4.9609,4.9688,4.9656,4.9703,4.9789,4.9811,4.9834,4.9968,4.994,4.9984,5.0056,5.0106,5.0121,5.0135,5.0179,5.0196,4.9994,4.9994,4.9994,0,4.946,4.9546,4.9536,4.9601,4.9629,4.9594,4.9667,4.969,4.9738,4.9757,4.9726,4.983,4.9849,4.9944,4.9977,4.9998,5.0015,4.9979,5.012,5.0134,5.0146,5.0188,5.0205,4.9999,4.9998,4.9998,4.9998,0,4.962,4.968,4.9735,4.9783,4.9817,4.9886,4.9884,4.992,4.9907,4.9911,4.999,5.0011,5.0059,5.0081,5.0069,5.0174,5.0155,5.0123,5.0065,5.0169,5.0208,5.0225,5.0006,5.0004,5.0003,5.0002,0,0,4.9791,4.9832,4.9852,4.9872,4.9907,4.9952,5.0017,5.0065,5.0095,5.0129,5.0181,5.0253,5.0222,5.0248,5.0238,5.0282,5.0383,5.0243,5.0244,5.0266,5.0496,5.0519,5.0538,5.0366,5.0369,5.0371,5.0492,0,4.9918,5.0034,5.0026,5.0134,5.0187,5.0154,5.021,5.0237,5.0242,5.0286,5.0291,5.0341,5.0298,5.0313,5.0356,5.0362,5.0429,5.0353,5.0411,5.0413,5.0402,5.0559,5.0584,5.0697,5.0508,5.0511,5.0513,0,5.0082,5.0122,5.0235,5.026,5.0282,5.0333,5.0375,5.0418,5.0446,5.0447,5.0475,5.0457,5.052,5.0462,5.0547,5.0496,5.0519,5.0525,5.0529,5.0532,5.0468,5.0563,5.0733,5.0749,5.0537,5.0535,5.0534,0,5.0191,5.0273,5.0351,5.0369,5.0401,5.0437,5.0452,5.0477,5.0505,5.0541,5.0559,5.0602,5.0624,5.0657,5.0649,5.0609,5.0735,5.0677,5.0734,5.0734,5.076,5.0758,5.0933,5.078,5.078,5.078,5.0779,0,5.0332,5.0402,5.04,5.0447,5.0523,5.0513,5.0588,5.0598,5.062,5.0666,5.0641,5.0685,5.0673,5.0716,5.0711,5.078,5.0791,5.0791,5.0788,5.0792,5.0791,5.0805,5.0795,5.0784,5.0783,5.0782,5.0781,0,5.0466,5.0468,5.055,5.0573,5.058,5.0635,5.0654,5.0697,5.07,5.0759,5.0772,5.0776,5.0825,5.0822,5.0877,5.0873,5.0957,5.0947,5.0948,5.0944,5.1,5.0994,5.1188,5.1211,5.1046,5.1047,5.1049,0,5.0555,5.0608,5.0636,5.0666,5.0684,5.0733,5.0761,5.0752,5.0783,5.0817,5.0856,5.0903,5.0939,5.1018,5.1025,5.1066,5.1054,5.1119,5.106,5.1061,5.1051,5.1047,5.105,5.113,5.1132,5.1133,5.1135,0,5.0711,5.0708,5.0752,5.0795,5.083,5.0863,5.0893,5.0919,5.0913,5.0948,5.0998,5.1026,5.1082,5.1128,5.1166,5.1179,5.1155,5.1154,5.1168,5.1171,5.1168,5.1167,5.0976,5.1149,5.1147,5.1146,5.1145,5.1145,5.0822,5.0866,5.0893,5.0941,5.0963,5.0991,5.1032,5.104,5.1082,5.1128,5.112,5.1175,5.1199,5.1248,5.1265,5.1306,5.1282,5.1305,5.1309,5.1314,5.1319,5.1164,5.1314,5.1313,5.1313,5.1312,5.1312,0,5.0974,5.0989,5.1034,5.1077,5.1114,5.109,5.1121,5.1153,5.1203,5.1228,5.1264,5.132,5.1364,5.1374,5.1415,5.1446,5.1435,5.1456,5.1452,5.1455,5.134,5.1322,5.1464,5.1464,5.1464,5.1464,5.1464,5.1464,5.1057,5.1129,5.113,5.1211,5.1226,5.128,5.13,5.1325,5.1345,5.1409,5.1445,5.1452,5.1469,5.1511,5.1549,5.1551,5.1565,5.159,5.1587,5.1479,5.1463,5.1449,5.1431,5.1594,5.1595,5.1698,5.1699,5.17]}]]